KK7DS Weather Reports


Display with metric or nautical units.
time (UTC)temp
F
wind
direction
speed
MPH
gust
MPH
rain 1hr
in
rain 24hr
in
rain mn
in
humidity
%
barometer
mb
20260507084605 52 325 2.0 5.0 0.00 0.00 0.00 84 1021.7
20260507083655 52 336 1.0 4.0 0.00 0.00 0.00 84 1021.8
20260507082745 52 336 2.0 5.0 0.00 0.00 0.00 84 1021.8
20260507081914 52 1 1.0 4.0 0.00 0.00 0.00 85 1021.7
20260507080035 52 301 0.0 2.0 0.00 0.00 0.00 85 1021.8
20260507075229 52 333 2.0 5.0 0.00 0.00 0.00 85
20260507075225 52 333 2.0 5.0 0.00 0.00 0.00 85 1021.8
20260507074350 52 336 2.0 6.0 0.00 0.00 0.00 85 1021.8
20260507073454 52 353 2.0 5.0 0.00 0.00 0.00 85 1021.7
20260507072635 52 335 3.0 10.0 0.00 0.00 0.00 85 1021.7
20260507071747 52 324 2.0 7.0 0.00 0.00 0.00 85 1021.6
20260507070750 52 347 1.0 7.0 0.00 0.00 0.00 85 1021.6
20260507065020 52 357 2.0 8.0 0.00 0.00 0.00 85 1021.6
20260507064113 52 331 2.0 8.0 0.00 0.00 0.00 84 1021.6
20260507063313 53 348 4.0 12.0 0.00 0.00 0.00 84 1021.6
20260507062334 53 347 5.0 10.0 0.00 0.00 0.00 84 1021.6
20260507061346 53 341 4.0 0.0 0.00 0.00 0.00 84 1021.5
20260507061344 53 341 4.0 12.0 0.00 0.00 0.00 84 1021.5
20260507060547 53 337 3.0 7.0 0.00 0.00 0.00 84 1021.6
20260507055735 53 348 4.0 10.0 0.00 0.00 0.00 84 1021.6
20260507054738 53 343 5.0 10.0 0.00 0.00 0.00 84 1021.6
20260507053835 53 343 6.0 14.0 0.00 0.00 0.00 83 1021.5
20260507052920 54 340 6.0 15.0 0.00 0.00 0.00 83 1021.4
20260507051032 54 352 5.0 12.0 0.00 0.00 0.00 83 1021.5
20260507050115 54 350 5.0 13.0 0.00 0.00 0.00 82 1021.6
20260507045226 54 351 4.0 13.0 0.00 0.00 0.00 82 1021.6
20260507044425 54 352 7.0 12.0 0.00 0.00 0.00 82 1021.6
20260507043445 55 356 6.0 10.0 0.00 0.00 0.00 82 1021.4
20260507042643 55 347 5.0 12.0 0.00 0.00 0.00 81 1021.3
20260507041707 56 348 7.0 13.0 0.00 0.00 0.00 81 1021.3
20260507040754 56 335 5.0 11.0 0.00 0.00 0.00 81 1021.2
20260507035815 56 350 3.0 7.0 0.00 0.00 0.00 81 1021.0
20260507034918 57 349 4.0 10.0 0.00 0.00 0.00 81 1020.8
20260507033154 57 348 3.0 12.0 0.00 0.00 0.00 81 1020.7
20260507032250 57 333 5.0 9.0 0.00 0.00 0.00 81 1020.5
20260507031405 57 341 3.0 8.0 0.00 0.00 0.00 81 1020.4
20260507030432 58 348 4.0 9.0 0.00 0.00 0.00 80 1020.3
20260507025617 58 2 4.0 9.0 0.00 0.00 0.00 80 1020.2
20260507024645 59 6 4.0 9.0 0.00 0.00 0.00 79 1020.2
20260507023800 60 356 4.0 9.0 0.00 0.00 0.00 78 1020.2
20260507022803 61 7 4.0 8.0 0.00 0.00 0.00 76 1020.1
20260507021048 61 344 4.0 8.0 0.00 0.00 0.00 76 1020.2
20260507020125 61 342 4.0 8.0 0.00 0.00 0.00 76 1020.3
20260507015246 62 13 4.0 10.0 0.00 0.00 0.00 76 1020.3
20260507014310 62 339 4.0 10.0 0.00 0.00 0.00 75 1020.4
20260507013440 63 350 3.0 11.0 0.00 0.00 0.00 75 1020.3
20260507012640 63 341 4.0 9.0 0.00 0.00 0.00 75 1020.2
20260507011807 64 339 4.0 10.0 0.00 0.00 0.00 74 1020.3
20260507010945 64 330 4.0 8.0 0.00 0.00 0.00 75 1020.3
20260507005039 65 349 4.0 7.0 0.00 0.00 0.00 75 1020.2
20260507004135 65 352 3.0 8.0 0.00 0.00 0.00 74 1020.2
20260507003315 66 352 3.0 7.0 0.00 0.00 0.00 72 1020.2
20260507002319 66 38 2.0 6.0 0.00 0.00 0.00 72 1020.2
20260507001412 65 35 2.0 6.0 0.00 0.00 0.00 71 1020.2
20260507000537 66 329 3.0 6.0 0.00 0.00 0.00 70 1020.2
20260506235634 66 322 2.0 4.0 0.00 0.00 0.00 70 1020.1
20260506234820 67 355 2.0 7.0 0.00 0.00 0.00 69 1020.2
20260506233045 67 249 0.0 2.0 0.00 0.00 0.00 70 1020.2
20260506232108 66 248 1.0 2.0 0.00 0.00 0.00 71 1020.3
20260506231245 65 320 1.0 4.0 0.00 0.00 0.00 72 1020.4
20260506230342 65 276 0.0 1.0 0.00 0.00 0.00 71 1020.6
20260506225442 64 23 0.0 1.0 0.00 0.00 0.00 74 1020.7
20260506225420 64 23 0.0 1.0 0.00 0.00 0.00 74 1020.7
20260506224530 64 315 1.0 5.0 0.00 0.00 0.00 73 1020.7
20260506223725 63 326 1.0 3.0 0.00 0.00 0.00 74 1020.8
20260506222915 63 329 2.0 4.0 0.00 0.00 0.00 76 1020.9
20260506221115 63 290 2.0 4.0 0.00 0.00 0.00 76 1020.9
20260506220223 63 307 2.0 6.0 0.00 0.00 0.00 76 1020.8
20260506215419 63 317 1.0 4.0 0.00 0.00 0.00 75 1020.7
20260506214454 64 41 1.0 3.0 0.00 0.00 0.00 76 1020.9
20260506213527 63 38 1.0 4.0 0.00 0.00 0.00 76 1021.1
20260506212608 63 326 1.0 3.0 0.00 0.00 0.00 77 1021.3
20260506211630 63 295 1.0 3.0 0.00 0.00 0.00 77 1021.3
20260506210739 62 174 0.0 2.0 0.00 0.00 0.00 78 1021.3
20260506205040 62 124 1.0 3.0 0.00 0.00 0.00 78 1021.2
20260506204105 62 216 1.0 3.0 0.00 0.00 0.00 80 1021.2
20260506203135 61 217 1.0 4.0 0.00 0.00 0.00 81 1021.2
20260506202157 60 260 1.0 5.0 0.00 0.00 0.00 82 1021.3
20260506201209 60 226 1.0 4.0 0.00 0.00 0.00 82 1021.4
20260506200405 60 276 2.0 5.0 0.00 0.00 0.00 82 1021.5
20260506195518 60 218 1.0 4.0 0.00 0.00 0.00 82 1021.6
20260506194529 60 293 2.0 6.0 0.00 0.00 0.00 82 1021.7
20260506193538 60 258 2.0 5.0 0.00 0.00 0.00 81 1021.6
20260506192713 60 321 1.0 4.0 0.00 0.00 0.00 81 1021.4
20260506191015 61 221 2.0 5.0 0.00 0.00 0.00 81 1021.5
20260506190115 60 133 1.0 5.0 0.00 0.00 0.00 81 1021.5
20260506185245 60 187 1.0 4.0 0.00 0.00 0.00 83 1021.4
20260506184357 59 159 1.0 3.0 0.00 0.00 0.00 85 1021.4
20260506183514 58 206 0.0 2.0 0.00 0.00 0.00 86 1021.5
20260506182530 58 214 0.0 2.0 0.00 0.00 0.00 86 1021.4
20260506181710 57 0.0 0.0 0.00 0.00 0.00 87 1021.5
20260506180835 57 218 0.0 2.0 0.00 0.00 0.00 87 1021.5
20260506175130 57 288 0.0 2.0 0.00 0.00 0.00 87 1021.4
20260506174150 57 253 0.0 2.0 0.00 0.00 0.00 86 1021.2
20260506173228 57 258 1.0 3.0 0.00 0.00 0.00 86 1021.1
20260506172243 56 216 0.0 1.0 0.00 0.00 0.00 87 1021.0
20260506171348 56 295 1.0 3.0 0.00 0.00 0.00 87 1021.2
20260506170415 56 313 1.0 4.0 0.00 0.00 0.00 87 1021.2
20260506165615 57 298 1.0 3.0 0.00 0.00 0.00 86 1021.0
20260506164809 57 325 1.0 4.0 0.00 0.00 0.00 87 1021.1
20260506163818 56 343 0.0 2.0 0.00 0.00 0.00 87 1020.8
20260506162931 56 249 0.0 2.0 0.00 0.00 0.00 87 1020.7
20260506161105 56 110 0.0 3.0 0.00 0.00 0.00 87 1020.6
20260506160307 55 78 0.0 4.0 0.00 0.00 0.00 89 1020.5
20260506155307 54 103 3.0 5.0 0.00 0.00 0.00 89 1020.1
20260506154435 54 0 0.0 4.0 0.00 0.00 0.00 89 1020.8
20260506153555 54 347 1.0 5.0 0.00 0.00 0.00 89 1021.0
20260506152756 54 7 1.0 4.0 0.00 0.00 0.00 90 1021.1
20260506151805 54 340 3.0 7.0 0.00 0.00 0.00 90 1021.0
20260506150927 54 341 4.0 7.0 0.00 0.00 0.00 90 1020.8
20260506145059 54 333 2.0 7.0 0.00 0.00 0.00 90 1020.8
20260506144100 54 335 3.0 6.0 0.00 0.00 0.00 90 1020.6
20260506143104 54 11 1.0 3.0 0.00 0.00 0.00 90 1020.3
20260506142150 54 331 0.0 2.0 0.00 0.00 0.00 90 1020.1
20260506141200 54 342 0.0 2.0 0.00 0.00 0.00 90 1020.2
20260506140320 54 0.0 0.0 0.00 0.00 0.00 90 1020.2
20260506135322 54 0.0 0.0 0.00 0.00 0.00 90 1020.1
20260506134405 54 0.0 0.0 0.00 0.00 0.00 90 1019.9
20260506133504 54 0.0 0.0 0.00 0.00 0.00 91 1019.9
20260506132550 54 0.0 0.0 0.00 0.00 0.00 91 1019.7
20260506131727 54 0.0 0.0 0.00 0.00 0.00 90 1019.7
20260506130854 54 0.0 0.0 0.00 0.00 0.00 90 1019.5
20260506125855 54 0.0 0.0 0.00 0.00 0.00 90 1019.5
20260506124955 54 0.0 0.0 0.00 0.00 0.00 90 1019.5
20260506123226 54 335 0.0 4.0 0.00 0.00 0.00 90 1019.6
20260506123154 54 335 0.0 4.0 0.00 0.00 0.00 90 1019.6
20260506122223 54 331 2.0 5.0 0.00 0.00 0.00 90 1019.5
20260506121305 54 330 2.0 6.0 0.00 0.00 0.00 90 1019.5
20260506120409 54 331 2.0 6.0 0.00 0.00 0.00 89 1019.3
20260506115419 54 340 3.0 6.0 0.00 0.00 0.00 89 1019.2
20260506114455 54 332 3.0 8.0 0.00 0.00 0.00 89 1019.1
20260506113614 54 337 3.0 6.0 0.00 0.00 0.00 89 1019.1
20260506112723 54 332 2.0 6.0 0.00 0.00 0.00 89 1019.0
20260506111730 54 322 2.0 5.0 0.00 0.00 0.00 89 1018.9
20260506110905 55 319 2.0 6.0 0.00 0.00 0.00 89 1018.8
20260506105049 55 328 2.0 5.0 0.00 0.00 0.00 89 1018.6
20260506104205 55 333 1.0 4.0 0.00 0.00 0.00 89 1018.5
20260506103355 55 340 1.0 4.0 0.00 0.00 0.00 88 1018.4
20260506102455 55 349 0.0 2.0 0.00 0.00 0.00 88 1018.3
20260506101639 55 340 0.0 2.0 0.00 0.00 0.00 88 1018.2
20260506101545 55 340 0.0 2.0 0.00 0.00 0.00 88 1018.2
20260506100610 56 12 0.0 2.0 0.00 0.00 0.00 88 1018.2
20260506095640 56 53 0.0 2.0 0.00 0.00 0.00 88 1018.1
20260506094815 56 341 1.0 2.0 0.00 0.00 0.00 88 1018.1
20260506093030 56 343 1.0 5.0 0.00 0.00 0.00 88 1018.1
20260506092221 56 5 1.0 3.0 0.00 0.00 0.00 87 1018.0
20260506091348 56 0 1.0 2.0 0.00 0.00 0.00 88 1018.0
20260506090354 56 358 1.0 3.0 0.00 0.00 0.00 88 1017.9
20260506085438 56 336 1.0 3.0 0.00 0.00 0.00 88 1018.0